Location: Ellingshausen
(50.5460°N, 10.4723°E)
Time: 23:38:43
(UTC+00:00)

USA 234 - Pass Details

Date: 18 January 2026
Orbit: 1102 x 1106 km, 123.0° (Epoch: 4 January)

Event Time Altitude Azimuth Distance (km) Brightness Sun altitude
Rises 06:27:22 0° 57° (ENE) 3,934 6.7 -6.9°
Reaches altitude 10° 06:29:56 10° 62° (ENE) 2,973 6.1 -6.5°
Maximum altitude 06:36:21 55° 139° (SE) 1,312 4.2 -5.6°
Drops below altitude 10° 06:42:45 10° 216° (SW) 2,959 5.4 -4.7°
Sets 06:45:17 0° 221° (SW) 3,914 6.0 -4.3°
